Wind_Speed
11 11 10 9 8 8 7 6 6 5 4 4 3 3 3 2 2 2 2 2 3 3 4 4 4 5 6 6 7 8 8 8 9 9 9 10 10 10 10 11 11 11 11
13 12 11 11 10 9 8 8 7 7 6 6 5 4 4 3 3 3 3 3 4 4 4 4 5 6 6 7 7 8 9 9 9 9 10 10 10 11 11 11 12 12 12
15 15 13 12 12 11 10 9 9 8 7 7 6 5 5 5 5 5 5 5 5 5 5 5 6 7 7 7 8 9 9 10 10 10 11 11 11 12 12 12 12 12 13
17 17 16 15 14 13 12 11 10 10 9 8 8 7 7 6 6 6 6 6 6 6 6 6 7 8 8 8 9 10 10 11 11 11 11 12 12 13 13 13 13 13 14
19 19 18 17 16 15 14 12 12 11 11 11 10 9 8 7 7 7 7 7 7 7 7 7 8 9 9 10 10 11 11 12 12 12 12 13 13 14 14 14 15 15 15
20 20 19 19 18 17 16 14 13 13 12 12 11 11 10 9 8 8 8 8 8 8 8 9 9 10 10 11 12 12 13 13 13 13 14 14 15 15 16 16 16 16 17
23 21 20 20 20 19 18 16 15 14 14 13 13 13 12 10 10 9 9 9 9 10 10 10 11 11 11 12 13 13 14 14 14 15 16 16 16 17 17 18 18 18 18
25 24 22 22 21 21 20 18 17 16 15 14 15 14 12 11 11 10 10 10 10 11 11 12 12 12 12 13 14 14 15 15 16 17 17 17 18 18 19 19 20 20 20
27 26 25 24 23 22 21 20 19 17 16 15 15 15 14 13 12 12 11 12 12 13 13 13 13 14 14 14 15 15 15 16 17 18 18 19 19 20 20 21 21 22 22
29 28 27 26 25 24 23 22 21 20 18 17 16 16 15 15 14 14 14 14 14 14 14 14 15 15 15 16 16 16 17 18 19 19 20 20 21 22 22 23 23 23 23
30 29 28 27 27 26 25 24 23 22 21 20 19 18 17 17 16 16 16 16 16 16 16 16 16 17 18 17 18 18 19 20 20 21 22 22 23 23 24 24 24 25 25
32 31 30 29 28 27 26 25 25 25 23 22 21 20 20 19 19 19 19 19 18 18 18 18 18 19 20 20 20 21 21 22 23 23 24 24 25 25 26 26 26 26 27
34 33 32 30 30 29 28 27 27 27 25 24 24 23 23 22 21 21 21 21 21 21 21 20 21 22 22 22 23 23 24 24 25 25 26 27 27 27 28 28 27 28 28
36 35 33 32 32 31 30 30 29 28 27 27 26 25 25 24 24 24 24 23 23 23 23 23 23 24 24 25 25 25 26 27 28 28 29 29 29 29 30 30 30 30 30
38 37 36 34 33 33 32 32 31 30 30 29 29 29 28 27 27 27 26 26 25 25 25 26 26 26 26 27 28 28 29 30 30 31 31 31 31 31 31 31 31 32 32
39 38 38 36 35 34 34 34 33 33 33 32 31 31 30 29 29 29 29 28 28 27 27 28 28 28 29 30 30 31 31 32 32 32 32 33 33 33 33 33 33 33 34
40 39 39 38 37 36 35 34 35 35 35 34 33 33 33 32 31 31 31 30 30 30 30 30 31 31 32 32 33 33 34 34 33 33 34 34 34 34 34 34 34 35 35
42 41 41 40 38 37 36 35 35 35 36 36 35 35 34 34 33 33 32 32 32 32 33 33 33 34 34 35 35 36 36 36 36 36 35 35 35 35 35 35 36 36 36
42 41 41 41 40 39 37 36 35 36 37 37 37 37 36 35 34 34 33 34 34 34 35 35 36 36 36 37 38 38 38 38 38 38 37 37 37 37 37 38 38 38 38
43 43 42 41 40 40 39 38 36 37 38 38 38 38 38 38 37 37 36 36 36 37 37 37 38 38 38 39 39 40 39 39 39 39 38 38 38 39 39 40 40 40 39
45 45 44 44 43 41 41 40 39 38 38 38 39 40 40 39 39 40 39 38 38 38 39 40 40 40 41 41 41 40 39 39 39 38 38 38 39 40 41 41 42 41 41
45 45 46 45 44 43 42 42 42 40 40 40 41 41 41 41 41 41 42 41 40 40 40 41 41 42 42 42 41 41 40 39 39 39 39 39 40 40 41 41 41 41 41
45 44 45 45 44 43 43 45 44 43 42 42 43 42 42 43 43 42 43 43 43 42 42 43 42 42 42 42 43 43 41 41 40 40 40 40 41 41 41 41 41 41 41
46 46 46 45 45 44 44 45 46 46 45 44 43 43 44 44 43 43 44 44 45 45 44 44 43 43 43 43 43 43 43 43 42 41 40 40 40 40 40 41 41 42 41
46 46 47 47 46 46 46 46 46 46 47 46 44 45 45 44 44 44 45 45 46 46 46 45 44 45 45 44 45 44 44 44 43 42 41 40 40 41 41 41 42 42 42
46 46 46 47 47 48 47 47 47 46 46 46 45 45 45 45 46 46 47 46 46 46 46 47 46 45 45 45 45 45 44 44 43 43 42 42 41 41 42 43 43 43 43
Wind_Direction
240 239 239 236 235 233 231 233 229 226 225 227 235 242 250 259 271 289 302 310 313 313 320 326 330 334 337 336 335 336 337 337 340 341 341 340 339 339 338 337 336 336 336
240 240 241 240 239 236 236 238 237 235 234 234 236 242 249 255 265 272 281 288 296 300 305 313 319 324 327 330 332 332 333 334 337 337 337 338 337 336 334 333 333 332 332
241 241 242 240 239 238 239 241 241 240 239 236 236 243 251 257 264 266 272 279 287 295 301 305 309 315 318 321 325 326 331 332 332 332 333 334 334 332 331 330 329 328 328
242 241 241 239 239 239 241 244 244 242 242 239 239 243 248 255 261 266 271 275 283 289 296 296 300 305 310 314 318 321 323 325 325 326 327 328 328 327 326 325 324 324 324
243 240 239 238 239 239 240 242 244 244 244 242 242 243 245 252 259 265 271 275 279 283 289 292 295 298 303 308 311 313 315 317 317 319 320 322 323 324 323 322 321 320 320
241 241 241 238 238 240 240 241 243 243 244 245 245 244 247 252 256 263 270 272 274 278 282 289 290 295 301 305 309 310 311 312 313 315 315 315 316 318 319 318 318 316 316
240 241 242 240 238 239 241 242 242 243 244 246 247 245 246 250 253 260 266 270 274 278 282 287 291 293 299 303 305 307 308 308 309 312 312 311 312 313 314 315 314 313 313
240 240 241 241 240 239 240 242 242 242 244 246 246 245 245 247 253 258 264 269 275 279 281 285 289 293 296 299 303 305 306 306 308 308 310 311 312 312 312 311 310 311 311
241 240 241 241 241 240 240 241 242 242 241 244 245 244 245 247 251 257 262 268 273 276 278 283 287 291 293 296 299 302 303 305 308 309 308 309 310 311 311 311 310 309 309
241 240 240 241 241 240 239 241 241 241 241 242 244 246 247 248 251 256 261 266 272 275 276 281 286 288 291 294 296 299 301 304 305 306 307 308 308 309 309 309 308 308 308
241 241 240 240 240 241 239 239 240 241 241 241 242 245 248 249 251 256 261 266 271 275 276 279 284 288 289 292 295 297 299 301 302 303 304 306 307 307 307 307 305 305 306
240 240 240 240 241 242 240 238 240 240 241 241 242 244 246 249 253 256 260 265 269 274 275 278 283 286 288 291 294 296 297 299 300 301 302 302 304 305 306 305 304 303 303
239 240 240 240 241 241 241 239 240 240 240 242 243 245 247 250 255 258 261 265 269 273 275 278 281 284 286 289 292 294 296 298 300 301 301 301 301 302 303 303 302 302 302
238 239 239 240 240 241 240 239 240 240 241 243 244 246 250 253 256 259 263 266 269 272 275 278 281 283 285 288 290 292 294 296 297 298 299 299 299 299 299 300 300 300 300
238 238 238 238 239 239 240 240 239 241 242 243 246 248 250 253 256 259 262 265 268 271 274 277 280 282 285 287 289 291 293 295 296 297 297 297 297 297 297 298 298 298 299
237 236 236 237 238 239 240 240 241 241 242 244 246 249 250 253 256 260 262 265 267 269 272 276 279 282 284 286 288 290 291 293 294 295 295 295 296 296 296 297 297 297 298
236 236 236 236 237 239 241 241 242 242 243 245 247 250 251 254 258 262 264 266 268 269 272 275 278 280 283 285 287 289 290 291 292 293 293 294 294 295 296 296 297 297 297
235 236 236 236 238 239 240 242 242 244 245 247 248 250 253 256 259 261 264 266 269 271 273 276 278 281 283 285 287 289 290 290 292 291 291 292 292 293 294 295 297 296 296
233 235 236 237 238 239 240 242 243 245 247 248 249 251 254 257 259 262 265 267 270 273 274 276 279 281 283 285 287 288 289 289 290 290 290 291 290 291 292 294 295 295 295
233 235 237 238 239 240 241 242 243 244 247 249 251 252 255 257 260 263 265 268 271 273 274 276 279 281 283 286 287 288 288 288 289 289 289 289 290 290 291 293 294 294 294
234 235 236 239 239 240 241 242 244 246 247 249 250 253 255 258 261 263 266 268 270 272 275 277 279 282 284 285 286 286 287 288 289 289 289 289 290 291 292 293 294 294 294
235 237 239 239 240 241 242 243 245 247 247 249 251 253 255 257 261 264 265 268 271 273 275 278 280 281 283 283 284 285 285 287 287 287 288 289 290 291 292 292 293 293 293
236 237 238 238 240 242 243 244 245 247 248 250 253 255 257 259 260 262 265 267 270 273 275 277 279 280 281 282 284 285 285 286 287 286 287 288 289 290 291 291 292 293 293
238 239 240 240 241 242 244 245 247 249 251 253 254 257 258 260 261 262 265 268 270 273 275 277 277 279 280 281 282 283 285 286 287 287 287 288 290 290 290 291 291 292 292
239 240 242 242 243 243 244 246 248 250 252 253 254 256 259 260 261 264 266 269 270 272 274 276 278 278 278 279 281 282 284 285 286 286 287 288 289 290 290 291 292 292 290
240 241 242 241 243 245 246 247 249 251 253 254 256 259 259 261 263 264 267 269 270 272 275 275 276 277 278 279 281 282 283 284 285 286 286 287 288 288 289 290 291 291 289
Height
5859 5860 5861 5862 5863 5863 5864 5865 5865 5866 5866 5867 5868 5868 5869 5870 5870 5871 5871 5871 5871 5872 5872 5872 5872 5872 5871 5871 5871 5870 5870 5869 5868 5868 5867 5866 5865 5864 5863 5862 5861 5860 5859
5857 5858 5859 5860 5861 5862 5862 5863 5864 5865 5865 5866 5867 5867 5868 5869 5869 5870 5870 5870 5871 5871 5871 5871 5871 5871 5870 5870 5870 5869 5869 5868 5867 5867 5866 5865 5864 5863 5862 5861 5860 5858 5857
5855 5856 5857 5858 5859 5860 5861 5861 5862 5863 5864 5864 5865 5866 5867 5867 5868 5868 5869 5869 5870 5870 5870 5870 5870 5870 5869 5869 5869 5868 5868 5867 5866 5865 5865 5864 5863 5862 5860 5859 5858 5857 5855
5851 5853 5854 5855 5856 5857 5858 5859 5860 5861 5862 5863 5863 5864 5865 5866 5866 5867 5867 5868 5868 5868 5868 5869 5868 5868 5868 5868 5867 5867 5866 5865 5865 5864 5863 5862 5861 5860 5859 5857 5856 5855 5853
5848 5849 5851 5852 5853 5855 5856 5857 5858 5859 5860 5861 5861 5862 5863 5864 5865 5865 5866 5866 5866 5867 5867 5867 5867 5866 5866 5866 5866 5865 5864 5864 5863 5862 5861 5860 5859 5858 5857 5855 5854 5853 5851
5844 5845 5847 5849 5850 5852 5853 5854 5855 5856 5857 5858 5859 5860 5861 5862 5863 5863 5864 5864 5864 5865 5865 5865 5865 5865 5864 5864 5864 5863 5862 5862 5861 5860 5859 5858 5857 5856 5854 5853 5852 5850 5849
5839 5841 5843 5845 5847 5848 5850 5851 5852 5853 5854 5855 5856 5857 5858 5859 5860 5861 5861 5862 5862 5863 5863 5863 5863 5862 5862 5862 5861 5861 5860 5859 5859 5858 5857 5856 5854 5853 5851 5850 5849 5847 5846
5835 5837 5839 5841 5843 5844 5846 5847 5849 5850 5851 5852 5853 5854 5856 5856 5857 5858 5859 5859 5860 5860 5860 5860 5860 5860 5859 5859 5858 5858 5857 5857 5856 5855 5854 5853 5851 5850 5848 5847 5845 5844 5842
5829 5832 5834 5836 5838 5840 5842 5844 5845 5846 5848 5849 5850 5851 5852 5853 5854 5855 5856 5857 5857 5858 5858 5858 5858 5857 5857 5856 5856 5855 5855 5854 5853 5852 5851 5849 5848 5846 5845 5843 5842 5840 5838
5823 5826 5828 5831 5833 5835 5837 5839 5841 5843 5844 5846 5847 5848 5849 5850 5851 5852 5853 5854 5854 5855 5855 5855 5855 5854 5854 5853 5853 5852 5851 5851 5850 5849 5847 5846 5844 5843 5841 5839 5838 5836 5834
5817 5820 5822 5825 5828 5830 5832 5834 5836 5838 5840 5841 5843 5844 5845 5847 5848 5849 5849 5850 5851 5851 5851 5851 5851 5851 5850 5850 5849 5849 5848 5847 5846 5844 5843 5842 5840 5838 5837 5835 5833 5832 5830
5810 5814 5816 5819 5822 5824 5826 5828 5831 5833 5835 5837 5838 5840 5841 5843 5844 5844 5845 5846 5847 5847 5847 5847 5847 5846 5846 5846 5845 5844 5844 5842 5841 5840 5838 5837 5835 5834 5832 5830 5829 5827 5825
5803 5806 5810 5812 5815 5818 5821 5823 5825 5827 5829 5832 5834 5835 5837 5838 5839 5840 5841 5842 5842 5843 5843 5843 5842 5842 5841 5841 5841 5840 5839 5837 5836 5834 5833 5831 5830 5828 5827 5825 5823 5821 5819
5796 5799 5802 5805 5808 5811 5814 5817 5819 5822 5824 5826 5828 5830 5832 5833 5834 5835 5836 5837 5837 5838 5838 5838 5837 5837 5837 5836 5835 5834 5833 5832 5830 5829 5827 5826 5824 5822 5821 5819 5817 5815 5813
5788 5791 5795 5798 5801 5804 5807 5810 5813 5815 5818 5820 5822 5825 5826 5828 5829 5830 5830 5831 5831 5832 5832 5832 5832 5831 5831 5830 5829 5828 5827 5826 5824 5822 5821 5819 5817 5816 5814 5812 5811 5809 5807
5780 5783 5787 5791 5794 5797 5800 5803 5806 5809 5811 5814 5816 5818 5820 5822 5823 5824 5824 5825 5825 5825 5826 5826 5826 5825 5825 5824 5823 5822 5821 5819 5817 5816 5814 5812 5811 5809 5807 5805 5803 5801 5799
5771 5775 5779 5783 5787 5790 5793 5796 5799 5802 5804 5807 5809 5811 5813 5815 5816 5817 5818 5819 5819 5819 5819 5819 5819 5818 5818 5817 5816 5815 5813 5812 5810 5808 5807 5805 5803 5801 5800 5798 5796 5794 5791
5763 5767 5771 5776 5779 5782 5785 5788 5791 5794 5797 5799 5802 5804 5806 5808 5809 5810 5811 5812 5812 5812 5812 5812 5812 5811 5810 5809 5808 5807 5805 5804 5802 5800 5799 5797 5795 5794 5792 5790 5788 5785 5783
5755 5759 5764 5768 5772 5775 5778 5781 5785 5787 5790 5792 5795 5797 5799 5800 5802 5803 5803 5804 5804 5804 5804 5804 5804 5803 5802 5801 5799 5798 5797 5795 5793 5792 5790 5788 5787 5785 5783 5781 5779 5777 5774
5747 5752 5756 5760 5764 5767 5771 5773 5777 5780 5782 5785 5787 5789 5791 5793 5794 5795 5795 5796 5797 5797 5796 5796 5795 5795 5794 5792 5791 5789 5788 5786 5784 5782 5781 5779 5777 5775 5773 5771 5770 5768 5765
5739 5743 5747 5751 5755 5759 5762 5766 5769 5772 5775 5777 5779 5781 5783 5784 5785 5786 5787 5788 5788 5788 5788 5787 5787 5786 5785 5783 5781 5780 5778 5777 5775 5773 5771 5769 5767 5765 5763 5761 5759 5758 5756
5730 5735 5739 5743 5747 5751 5754 5757 5760 5764 5766 5768 5770 5772 5773 5775 5777 5778 5778 5778 5779 5779 5779 5778 5777 5776 5775 5773 5772 5770 5770 5769 5767 5765 5762 5760 5758 5756 5754 5751 5749 5747 5746
5722 5726 5729 5734 5738 5742 5745 5748 5751 5754 5756 5759 5761 5763 5765 5766 5767 5768 5769 5769 5769 5769 5769 5768 5767 5766 5765 5764 5762 5761 5759 5759 5758 5757 5754 5751 5749 5747 5744 5742 5739 5737 5735
5713 5717 5721 5724 5729 5732 5736 5739 5742 5745 5747 5750 5752 5753 5755 5756 5757 5758 5759 5759 5759 5759 5758 5758 5757 5756 5755 5754 5753 5751 5749 5748 5747 5747 5745 5742 5739 5737 5735 5732 5730 5727 5725
5704 5708 5711 5714 5719 5722 5726 5729 5732 5734 5737 5739 5741 5743 5744 5746 5747 5748 5748 5749 5749 5749 5748 5747 5747 5745 5745 5744 5743 5741 5740 5738 5736 5735 5734 5733 5730 5728 5725 5722 5720 5717 5715
5695 5698 5702 5705 5709 5713 5716 5719 5721 5724 5727 5729 5731 5732 5734 5736 5736 5737 5737 5738 5738 5738 5737 5737 5736 5735 5734 5733 5732 5731 5730 5728 5727 5724 5723 5722 5721 5718 5715 5712 5710 5707 5704